EW7084 Weather Reports


Display with metric or nautical units.
time (UTC)temp
F
wind
direction
speed
MPH
gust
MPH
rain 1hr
in
rain 24hr
in
rain mn
in
humidity
%
barometer
mb
20260906151506 69 19 0.0 0.0 0.00 0.00 0.00 71 1017.7
20260906150003 69 355 0.0 0.0 0.00 0.00 0.00 72 1017.8
20260906144500 67 17 0.0 0.0 0.00 0.00 0.00 76 1017.8
20260906143059 67 360 0.0 0.0 0.00 0.00 0.00 77 1017.8
20260906141558 66 360 0.0 0.0 0.00 0.00 0.00 82 1017.7
20260906140058 65 344 0.0 0.0 0.00 0.00 0.00 86 1017.5
20260906134548 63 319 0.0 0.0 0.00 0.00 0.00 86 1017.5
20260906133110 63 317 0.0 0.0 0.00 0.00 0.00 88 1017.6
20260906131546 63 317 0.0 0.0 0.00 0.00 0.00 88 1017.4
20260906130054 62 347 0.0 0.0 0.00 0.00 0.00 89 1017.5
20260906124543 62 331 0.0 0.0 0.00 0.00 0.00 90 1017.5
20260906123040 62 12 0.0 0.0 0.00 0.00 0.00 91 1017.3
20260906121541 62 355 0.0 0.0 0.00 0.00 0.00 91 1017.2
20260906120036 61 24 0.0 0.0 0.00 0.00 0.00 91 1017.0
20260906114543 61 24 0.0 0.0 0.00 0.00 0.00 92 1016.9
20260906113030 60 24 0.0 0.0 0.00 0.00 0.00 91 1016.9
20260906110026 60 24 0.0 0.0 0.00 0.00 0.00 91 1016.7
20260906104525 59 24 0.0 0.0 0.00 0.00 0.00 91 1016.6
20260906103024 59 24 0.0 0.0 0.00 0.00 0.00 91 1016.4
20260906101524 59 24 0.0 0.0 0.00 0.00 0.00 91 1016.3
20260906100025 59 24 0.0 0.0 0.00 0.00 0.00 90 1016.2
20260906094522 58 24 0.0 0.0 0.00 0.00 0.00 90 1016.0
20260906093020 57 24 0.0 0.0 0.00 0.00 0.00 90 1015.8
20260906091523 57 24 0.0 0.0 0.00 0.00 0.00 90 1015.5
20260906090016 57 24 0.0 0.0 0.00 0.00 0.00 89 1015.5
20260906084514 57 24 0.0 0.0 0.00 0.00 0.00 89 1015.3
20260906083014 57 24 0.0 0.0 0.00 0.00 0.00 89 1015.3
20260906081517 57 24 0.0 0.0 0.00 0.00 0.00 89 1015.2
20260906080013 57 24 0.0 0.0 0.00 0.00 0.00 88 1015.1
20260906074509 58 24 0.0 0.0 0.00 0.00 0.00 89 1015.1
20260906073006 59 24 0.0 0.0 0.00 0.00 0.00 89 1015.2
20260906071505 59 24 0.0 0.0 0.00 0.00 0.00 89 1015.2
20260906070006 58 24 0.0 0.0 0.00 0.00 0.00 89 1015.2
20260906064504 59 24 0.0 0.0 0.00 0.00 0.00 88 1015.2
20260906063004 59 24 0.0 0.0 0.00 0.00 0.00 88 1015.2
20260906061503 59 24 0.0 0.0 0.00 0.00 0.00 88 1015.4
20260906060002 59 24 0.0 0.0 0.00 0.00 0.00 88 1015.4
20260906054502 59 24 0.0 0.0 0.00 0.00 0.00 88 1015.3
20260906053102 59 24 0.0 0.0 0.00 0.00 0.00 88 1015.4
20260906051612 59 24 0.0 0.0 0.00 0.00 0.00 88 1015.5
20260906044606 60 24 0.0 0.0 0.00 0.00 0.00 87 1015.5
20260906043056 60 24 0.0 0.0 0.00 0.00 0.00 87 1015.4
20260906041556 60 24 0.0 0.0 0.00 0.00 0.00 87 1015.4
20260906040133 60 24 0.0 0.0 0.00 0.00 0.00 86 1015.3
20260906034603 60 24 0.0 0.0 0.00 0.00 0.00 85 1015.2
20260906033104 61 24 0.0 0.0 0.00 0.00 0.00 84 1015.1
20260906031550 61 24 0.0 0.0 0.00 0.00 0.00 85 1014.9
20260906030050 62 24 0.0 0.0 0.00 0.00 0.00 84 1014.8
20260906024602 62 24 0.0 0.0 0.00 0.00 0.00 84 1015.0
20260906023059 62 24 0.0 0.0 0.00 0.00 0.00 84 1014.9
20260906021548 63 24 0.0 0.0 0.00 0.00 0.00 83 1014.8
20260906020046 64 24 0.0 0.0 0.00 0.00 0.00 82 1014.7
20260906014547 64 24 0.0 0.0 0.00 0.00 0.00 81 1014.6
20260906013045 65 24 0.0 0.0 0.00 0.00 0.00 79 1014.5
20260906011544 65 24 0.0 0.0 0.00 0.00 0.00 78 1014.5
20260906010044 66 24 0.0 0.0 0.00 0.00 0.00 76 1014.5
20260906004541 67 24 0.0 0.0 0.00 0.00 0.00 76 1014.3
20260906003042 68 24 0.0 0.0 0.00 0.00 0.00 75 1014.1
20260906001542 69 24 0.0 0.0 0.00 0.00 0.00 74 1013.9
20260906000041 70 24 0.0 0.0 0.00 0.00 0.00 73 1013.9
20260905234541 70 24 0.0 0.0 0.00 0.00 0.00 73 1013.8
20260905233049 71 24 0.0 4.0 0.00 0.00 0.00 71 1013.8
20260905231539 72 24 1.0 5.0 0.00 0.00 0.00 69 1013.7
20260905230039 73 24 2.0 6.0 0.00 0.00 0.00 67 1013.6
20260905224608 74 26 2.0 8.0 0.00 0.00 0.00 64 1013.4
20260905223043 75 90 0.0 4.0 0.00 0.00 0.00 64 1013.4
20260905221537 76 284 1.0 5.0 0.00 0.00 0.00 67 1013.3
20260905220036 75 278 2.0 4.0 0.00 0.00 0.00 65 1013.2
20260905213035 76 277 1.0 4.0 0.00 0.00 0.00 63 1012.9
20260905211543 76 277 1.0 4.0 0.00 0.00 0.00 62 1013.0
20260905210042 76 275 0.0 4.0 0.00 0.00 0.00 62 1012.9
20260905204535 77 26 1.0 9.0 0.00 0.00 0.00 60 1012.8
20260905203031 76 12 0.0 1.0 0.00 0.00 0.00 60 1012.7
20260905201529 76 292 0.0 1.0 0.00 0.00 0.00 60 1012.8
20260905200030 76 269 0.0 1.0 0.00 0.00 0.00 59 1012.8
20260905194529 76 288 0.0 1.0 0.00 0.00 0.00 62 1012.8
20260905193026 76 292 0.0 1.0 0.00 0.00 0.00 60 1012.7
20260905191525 76 292 0.0 1.0 0.00 0.00 0.00 60 1012.9
20260905190025 75 273 0.0 1.0 0.00 0.00 0.00 62 1013.0
20260905184529 75 17 0.0 1.0 0.00 0.00 0.00 63 1013.0
20260905183023 74 5 0.0 1.0 0.00 0.00 0.00 62 1012.9
20260905181521 74 289 0.0 1.0 0.00 0.00 0.00 63 1013.0
20260905180020 74 195 0.0 0.0 0.00 0.00 0.00 63 1012.9
20260905174524 74 271 0.0 0.0 0.00 0.00 0.00 61 1013.0
20260905173017 74 269 0.0 0.0 0.00 0.00 0.00 63 1013.0
20260905171514 73 299 0.0 1.0 0.00 0.00 0.00 67 1013.3
20260905170012 72 303 0.0 0.0 0.00 0.00 0.00 67 1013.4
20260905164518 72 294 0.0 1.0 0.00 0.00 0.00 68 1013.4
20260905163013 72 273 0.0 1.0 0.00 0.00 0.00 66 1013.4
20260905161510 72 254 0.0 1.0 0.00 0.00 0.00 68 1013.3
20260905160009 71 292 0.0 1.0 0.00 0.00 0.00 68 1013.4
20260905154510 71 5 0.0 1.0 0.00 0.00 0.00 71 1013.5
20260905153005 70 346 0.0 1.0 0.00 0.00 0.00 70 1013.5